Regional Weather Roundup
Issued by NWS Lake Charles, LA

Home | Current Version | Previous Version | Text Only | Print | Product List | Glossary On
Versions: 1 2 3 4 5 6 7 8 9 10 11 12 13 14 15 16 17 18 19 20 21 22 23 24 25 26 27 28 29 30 31 32 33 34 35 36 37 38 39 40 41 42 43 44 45 46 47 48 49 50
000
ASUS44 KLCH 261210
RWRLCH
RWRLCH
REGIONAL WEATHER ROUNDUP
NATIONAL WEATHER SERVICE LAKE CHARLES LA
600 AM CST MON JAN 26 2015

Note: "fair" indicates few or no clouds below 12,000 feet with no
significant weather and/or obstructions to visibility.


ACROSS SOUTHEAST TEXAS

CITY           SKY/WX    TMP DP  RH WIND       PRES   REMARKS
BEAUMONT       CLEAR     48  32  53 N12       30.14R
BEAUMONT CITY    N/A     44  32  63 N10       30.16S
ORANGE         SUNNY     47  32  56 NW7       30.16S
JASPER         CLEAR     33  31  93 NW3       30.19S
$$

ACROSS CENTRAL LOUISIANA

CITY           SKY/WX    TMP DP  RH WIND       PRES   REMARKS
LEESVILLE      CLEAR     42  32  69 NW6       30.14R
FULLERTON        N/A     46  31  55 VRB3      30.12R
ALEXANDRIA INT CLEAR     41  33  73 NW8       30.13R
ESLER FIELD    CLEAR     43  32  65 VRB6      30.13R
DERIDDER         N/A     44  31  61 CALM      30.17R
OAKDALE        SUNNY     44  33  64 NW6       30.14R
OPELOUSAS        N/A     43  32  65 NW5       30.12R
$$

ACROSS SOUTHWEST AND SOUTH CENTRAL LOUISIANA

CITY           SKY/WX    TMP DP  RH WIND       PRES   REMARKS
SULPHUR        SUNNY     46  32  59 NW10      30.16R
LAKE CHARLES   CLEAR     48  32  53 N13       30.14R
CHENNAULT INT  CLEAR     45  32  61 NW12      30.15
CAMERON PHI      N/A     48  36  61 N12G17    30.16R
DEQUINCY         N/A     42  32  69 NW6       30.16R
JENNINGS         N/A     43  34  69 NW7       30.13R
LAFAYETTE      CLEAR     47  33  58 N9        30.12R
NEW IBERIA     CLEAR     47  34  60 N9        30.12R
ABBEVILLE        N/A     41  33  73 NW7       30.12R
PATTERSON      CLEAR     48  32  53 N8        30.10R
SALT POINT       N/A     48  35  60 N6        30.09R
$$

SELECTED SITES ACROSS THE REGION

CITY           SKY/WX    TMP DP  RH WIND       PRES   REMARKS
HOUSTON BUSH   PTCLDY    48  29  47 NW5       30.19R
HOUSTON HOBBY  PTCLDY    50  28  42 NW3       30.19R
GALVESTON      CLEAR     46  40  79 SW6       30.20R
COLLEGE STAT   CLEAR     44  29  55 N5        30.20R
CONROE         CLEAR     46  29  51 N7        30.19R
HUNTSVILLE     CLEAR     42  28  57 CALM      30.19R
LUFKIN         CLEAR     40  29  64 CALM      30.18S
SHREVEPORT     CLEAR     39  32  76 W8        30.16R
MONROE         CLEAR     41  33  73 NW8       30.13R
NATCHEZ MS     CLEAR     43  30  61 NW5       30.10R
BATON ROUGE    CLEAR     47  32  56 NW7       30.09R
N.O. INTL ARPT CLEAR     50  34  54 N14       30.07R
SLIDELL        CLEAR     45  34  65 N6        30.05R
$$

MARINE REPORTS

STATION/POSITION TIME  TEMP    WIND        PRES    VSBY  WAVE
                       AIR SEA DIR/SP/G                  HT/PER
                 (UTC) (F)     (DEG/KT/KT) (MB)    (MI)  (FT/S)
BUOY 30 S HIGH I 1200   55 55  340/ 14/ 17 1021.5R         2/ 5
SEA RIM ST PARK  1200   44     340/  8/  8 1021.3R
PORT ARTHUR      1100      51  350/  9/ 12 1020.6R
SABINE PASS N    1100   52 51  360/ 14/ 24 1020.5R
TEXAS POINT      NOT AVBL
CALCASIEU PASS   1100   48 51  360/ 11/ 15   N/A
LK CHARLES BEACH 1123   49 51              1020.3
MARSH ISLAND     NOT AVBL
FRESH WATER LOCK 1123   45 53  310/  6/  7 1019.1
AMERADA PASS     1123   46 45  290/  4/  6 1018.5
$$



USA.gov is the U.S. government's official web portal to all federal, state and local government web resources and services.